Location: Binningen
(47.7924°N, 8.7261°E)
Time: 13:30:01
(UTC+00:00)

Terra - Pass Details

Date: 02 October 2021
Orbit: 701 x 703 km, 98.2° (Epoch: 28 October)

Event Time Altitude Azimuth Distance (km) Brightness Sun altitude
Exits shadow 21:36:24 12° 339° (NNW) 2,021 4.8 -41.4°
Drops below altitude 10° 21:36:53 10° 341° (NNW) 2,212 5.0 -41.4°
Sets 21:39:06 0° 344° (NNW) 3,104 5.9 -41.6°
